STARLINK-30565, 58034

Orbit data source: Space-Track

STARLINK-30565, 58034 is a payload satellite owned by SpaceX/Seattle (US) in LEO that was launched on Mon, 09 Oct 2023 UTC via an FALCON 9 launch vehicle from the Air Force Western Test Range (AFWTR). Payload-class satellites include a variety of spacecraft equipped with specific instruments for various scientific and technological missions. These include communications satellites like Starlink; space stations such as the ISS; scientific satellites like the Hubble; Earth observation satellites from companies like Planet Labs, Umbra, and HawkEye 360; GPS; miniature CubeSats for education and research; and military/defense satellites.

Loading next visibility...
Identifier
58034, 2023-156G
Orbit
LEO
Country
Flag of USUS
Related business
Manufacturer
SpaceX/Seattle
Mission
Operational Commercial Communications
Bus & Motor
STARLINK V2M, Unknown motor
Mass
730 kg wet, ~700 kg dry
Launch date (UTC)
2023-10-09 (2 years ago)
Launch vehicle
FALCON 9
Launch site
Air Force Western Test Range (AFWTR)
Object type
Payload
Rocket body
Debris
Shape & HBR
Box + 2 Pan, 17.7 m
Radar Cross Section
33.884 m², Large (>1 m²)

Expand to show TLE details & history
Last TLE update: 1 day ago

TLE from 1 day ago
0 STARLINK-30565
1 58034U 23156G   25348.65995345 -.00000176  00000-0  61750-5 0  9994
2 58034  53.1583 113.4350 0001012  97.0883 263.0233 15.30189235123296
Epoch: 2025-12-14T15:50Z
TLE epoch observation values (Epoch: 2025-12-14T15:50:19.978Z)
Latitude
0.00001°
Longitude
152.28208°
Altitude
476.231 km
Speed
7.629 km/s
True Right ascension
07h 33m 44s
True Declination
0° 00' 00"
Sunlit
Object was in full shadow at epoch
Visualization orbit readout
Latitude
Unknown
Longitude
Unknown
Altitude
Unknown
Speed
Unknown
Apparent Right ascension
Unknown
Apparent Declination
Unknown
Sunlit
N/A
Visualization observer readout
Local Sidereal Time
15:11:10
Azimuth
Unknown
Elevation
Unknown
Doppler factor
Unknown
Orbital elements
Apogee altitude
476.198 km
Perigee altitude
474.81 km
Semi-major axis
6,853.641 km
Eccentricity
0.0001
Inclination
53.1583°
RAAN
113.435°
Arg. of periapsis
97.0883°
True anomaly
263.01179°
Mean anomaly
263.0233°
Eccentric anomaly
263.01754°
Mean motion
3.82526 °/min
Orbital period
94.11 mins
BSTAR
0.000006175
Loading maneuver chart data...
Computing Atmospheric mass density...
Loading historical data...
Loading historical data...
Loading historical data...
Loading historical data...
Loading historical data...
Loading historical data...
Loading historical data...

Documentation

Showing up to 5 results
|